Bad Axe, MI

1:09 AM EDT on October 17, 2017 (GMT -0400)
Huron County Memorial

Weather History for KBAX - September, 2012

Change the Weather History Date:

Sunday, September 23, 2012

  Actual Average (KP58) Record (KP58)
Temperature  
Mean Temperature 46 °F -  
Max Temperature 54 °F 67 °F 100 °F (2000)
Min Temperature 37 °F 50 °F 45 °F (2002)
Degree Days  
Heating Degree Days 20    
Moisture  
Dew Point 40 °F    
Average Humidity 80    
Maximum Humidity 95    
Minimum Humidity 60    
Precipitation  
Precipitation 0.00 in - - ()
Sea Level Pressure  
Sea Level Pressure 30.11 in    
Wind  
Wind Speed 7 mph (West)    
Max Wind Speed 16 mph    
Max Gust Speed 24 mph    
Visibility 10 miles    
Events Rain    
Averages and records for this station are not official NWS values.
T = Trace of Precipitation, MM = Missing Value Source: NWS Daily Summary

Daily Weather History Graph

Daily Weather History Graph

Search for Another Location

Airport or City:

Trip Planner

Search our weather history database for the weather conditions in past years. The results will help you decide how hot, cold, wet, or windy it might be!

Date:

Astronomy

Sep. 23, 2012 Rise Set
Actual Time 7:20 AM EDT 7:26 PM EDT
Civil Twilight 6:52 AM EDT 7:55 PM EDT
Nautical Twilight 6:18 AM EDT 8:28 PM EDT
Astronomical Twilight 5:44 AM EDT 9:03 PM EDT
Moon 3:37 PM EDT (9/23) 12:20 AM EDT (9/23)
Length of Visible Light 13h 03m
Length of Day
12h 05m
First Quarter, 60% of the Moon is Illuminated
Sep 23
First Quarter
Sep 29
Full
Oct 8
Last Quarter
Oct 15
New
Oct 21
First Quarter

Hourly Weather History & Observations

Time (EDT) Temp. Windchill Dew Point Humidity Pressure Visibility Wind Dir Wind Speed Gust Speed Precip Events Conditions
12:14 AM 45.1 °F 41.4 °F 40.3 °F 83% 30.02 in 10.0 mi WNW 6.9 mph - N/A   Clear
12:34 AM 43.7 °F 40.3 °F 39.6 °F 85% 30.03 in 10.0 mi West 5.8 mph - N/A   Clear
12:54 AM 43.7 °F 40.3 °F 39.9 °F 87% 30.03 in 10.0 mi West 5.8 mph - N/A   Clear
1:14 AM 43.9 °F 40.5 °F 40.1 °F 87% 30.03 in 10.0 mi West 5.8 mph - N/A   Clear
1:34 AM 44.1 °F 40.1 °F 40.1 °F 86% 30.04 in 10.0 mi West 6.9 mph - N/A   Clear
1:54 AM 45.1 °F 42.0 °F 40.6 °F 84% 30.04 in 10.0 mi West 5.8 mph - N/A   Mostly Cloudy
2:14 AM 45.7 °F 41.5 °F 40.5 °F 82% 30.05 in 10.0 mi West 8.1 mph - N/A   Overcast
2:34 AM 45.9 °F 41.7 °F 39.7 °F 79% 30.04 in 10.0 mi West 8.1 mph - N/A   Overcast
2:54 AM 45.5 °F 40.8 °F 39.7 °F 80% 30.05 in 10.0 mi West 9.2 mph - N/A   Overcast
3:14 AM 44.8 °F 40.4 °F 39.4 °F 81% 30.05 in 10.0 mi West 8.1 mph - N/A   Mostly Cloudy
3:34 AM 43.7 °F 39.1 °F 39.0 °F 84% 30.06 in 10.0 mi West 8.1 mph - N/A   Scattered Clouds
3:54 AM 44.1 °F 40.1 °F 39.2 °F 83% 30.06 in 10.0 mi WNW 6.9 mph - N/A   Scattered Clouds
4:14 AM 44.1 °F 40.1 °F 39.2 °F 83% 30.06 in 10.0 mi WNW 6.9 mph - N/A Rain Light Rain
4:34 AM 42.1 °F 39.2 °F 38.5 °F 87% 30.06 in 10.0 mi West 4.6 mph - N/A   Scattered Clouds
4:54 AM 41.0 °F 38.0 °F 38.1 °F 89% 30.06 in 10.0 mi West 4.6 mph - N/A   Clear
5:15 AM 41.0 °F 38.0 °F 37.8 °F 88% 30.06 in 10.0 mi West 4.6 mph - N/A   Clear
5:34 AM 41.4 °F 35.7 °F 38.5 °F 89% 30.06 in 10.0 mi West 9.2 mph - N/A   Clear
5:54 AM 41.9 °F 36.9 °F 38.7 °F 88% 30.07 in 10.0 mi West 8.1 mph - N/A   Clear
6:15 AM 41.5 °F 36.4 °F 38.3 °F 88% 30.08 in 10.0 mi West 8.1 mph - N/A   Clear
6:34 AM 40.5 °F 36.5 °F 37.6 °F 89% 30.08 in 10.0 mi WSW 5.8 mph - N/A   Clear
6:54 AM 40.1 °F 36.1 °F 37.8 °F 91% 30.08 in 10.0 mi WSW 5.8 mph - N/A   Clear
7:15 AM 39.4 °F 35.2 °F 37.4 °F 93% 30.09 in 10.0 mi WSW 5.8 mph - N/A   Clear
7:34 AM 38.7 °F 36.3 °F 36.7 °F 93% 30.09 in 10.0 mi WSW 3.5 mph - N/A   Clear
7:54 AM 39.2 °F 35.9 °F 37.4 °F 93% 30.09 in 10.0 mi WSW 4.6 mph - N/A   Clear
8:15 AM 40.5 °F 37.3 °F 38.7 °F 93% 30.10 in 10.0 mi WSW 4.6 mph - N/A   Clear
8:34 AM 42.1 °F 39.2 °F 40.1 °F 93% 30.10 in 10.0 mi SW 4.6 mph - N/A   Clear
8:54 AM 43.7 °F 39.7 °F 40.6 °F 89% 30.11 in 10.0 mi SW 6.9 mph - N/A   Clear
9:15 AM 45.9 °F 41.7 °F 41.4 °F 84% 30.11 in 10.0 mi WSW 8.1 mph - N/A   Scattered Clouds
9:34 AM 47.1 °F - 40.8 °F 79% 30.12 in 10.0 mi West 13.8 mph 18.4 mph N/A   Mostly Cloudy
9:55 AM 48.4 °F - 40.8 °F 75% 30.12 in 10.0 mi WNW 12.7 mph 17.3 mph N/A   Mostly Cloudy
10:14 AM 48.7 °F - 40.8 °F 74% 30.12 in 10.0 mi West 13.8 mph 23.0 mph N/A   Mostly Cloudy
10:34 AM 49.5 °F - 41.2 °F 73% 30.12 in 10.0 mi WNW 10.4 mph 19.6 mph N/A   Mostly Cloudy
10:55 AM 49.1 °F - 41.0 °F 74% 30.12 in 10.0 mi WNW 11.5 mph - N/A   Mostly Cloudy
11:14 AM 49.3 °F - 40.6 °F 72% 30.12 in 10.0 mi West 11.5 mph 17.3 mph N/A   Mostly Cloudy
11:34 AM 51.6 °F - 39.9 °F 64% 30.12 in 10.0 mi WNW 12.7 mph 18.4 mph N/A   Scattered Clouds
11:55 AM 52.9 °F - 40.8 °F 64% 30.12 in 10.0 mi West 12.7 mph 19.6 mph N/A   Mostly Cloudy
12:14 PM 49.5 °F - 40.1 °F 70% 30.13 in 10.0 mi West 10.4 mph 20.7 mph N/A   Mostly Cloudy
12:34 PM 53.4 °F - 40.3 °F 61% 30.12 in 10.0 mi WNW 10.4 mph 17.3 mph N/A   Scattered Clouds
12:55 PM 52.0 °F - 40.6 °F 65% 30.13 in 10.0 mi West 12.7 mph 19.6 mph N/A   Overcast
1:14 PM 52.9 °F - 41.4 °F 65% 30.13 in 10.0 mi West 15.0 mph 19.6 mph N/A   Overcast
1:34 PM 49.8 °F - 41.2 °F 72% 30.12 in 10.0 mi WNW 8.1 mph - N/A Rain Light Rain
1:55 PM 51.3 °F - 43.9 °F 76% 30.12 in 10.0 mi West 8.1 mph - N/A   Scattered Clouds
2:14 PM 54.0 °F - 42.1 °F 64% 30.12 in 10.0 mi West 11.5 mph 17.3 mph N/A   Mostly Cloudy
2:35 PM 51.3 °F - 38.1 °F 61% 30.12 in 10.0 mi NW 16.1 mph 21.9 mph N/A   Overcast
2:55 PM 49.1 °F - 40.3 °F 72% 30.12 in 10.0 mi NW 10.4 mph - N/A   Light Drizzle
3:14 PM 48.4 °F - 41.7 °F 78% 30.13 in 10.0 mi NW 6.9 mph - N/A Rain Light Rain
3:35 PM 48.7 °F - 43.0 °F 80% 30.12 in 10.0 mi Calm Calm - N/A   Overcast
3:55 PM 52.7 °F - 43.5 °F 71% 30.12 in 10.0 mi West 8.1 mph - N/A   Overcast
4:14 PM 51.8 °F - 41.4 °F 68% 30.12 in 10.0 mi West 11.5 mph - N/A   Overcast
4:35 PM 52.3 °F - 38.7 °F 60% 30.12 in 10.0 mi WNW 8.1 mph 18.4 mph N/A   Scattered Clouds
4:55 PM 50.2 °F - 39.2 °F 66% 30.12 in 10.0 mi WNW 13.8 mph 24.2 mph N/A   Scattered Clouds
5:14 PM 48.9 °F - 39.2 °F 69% 30.13 in 10.0 mi WNW 10.4 mph 16.1 mph N/A   Scattered Clouds
5:35 PM 50.0 °F - 38.8 °F 66% 30.13 in 10.0 mi West 8.1 mph - N/A   Overcast
5:54 PM 50.9 °F - 39.9 °F 66% 30.13 in 10.0 mi West 8.1 mph - N/A   Mostly Cloudy
6:15 PM 50.4 °F - 39.2 °F 66% 30.14 in 10.0 mi West 6.9 mph - N/A   Mostly Cloudy
6:35 PM 49.1 °F - 38.5 °F 67% 30.14 in 10.0 mi West 10.4 mph 18.4 mph N/A   Overcast
6:54 PM 48.2 °F - 39.4 °F 72% 30.14 in 10.0 mi West 4.6 mph - N/A   Mostly Cloudy
7:15 PM 46.8 °F - 40.1 °F 78% 30.14 in 10.0 mi West 3.5 mph - N/A   Scattered Clouds
7:35 PM 45.0 °F 43.5 °F 40.1 °F 83% 30.14 in 10.0 mi West 3.5 mph - N/A   Scattered Clouds
7:54 PM 43.7 °F 42.1 °F 39.6 °F 85% 30.14 in 10.0 mi WSW 3.5 mph - N/A   Scattered Clouds
8:15 PM 43.7 °F 41.1 °F 39.4 °F 85% 30.15 in 10.0 mi WSW 4.6 mph - N/A   Scattered Clouds
8:35 PM 45.0 °F 41.8 °F 40.5 °F 84% 30.15 in 10.0 mi West 5.8 mph - N/A   Mostly Cloudy
8:54 PM 43.9 °F 40.5 °F 39.6 °F 85% 30.15 in 10.0 mi West 5.8 mph - N/A   Scattered Clouds
9:15 PM 42.6 °F - 39.0 °F 87% 30.16 in 10.0 mi Calm Calm - N/A   Clear
9:35 PM 42.1 °F 40.2 °F 39.2 °F 90% 30.17 in 10.0 mi West 3.5 mph - N/A   Clear
9:55 PM 40.1 °F - 37.6 °F 91% 30.17 in 10.0 mi Calm Calm - N/A   Clear
10:15 PM 40.5 °F - 38.1 °F 91% 30.17 in 10.0 mi Calm Calm - N/A   Clear
10:34 PM 37.4 °F - 35.1 °F 91% 30.17 in 10.0 mi Calm Calm - N/A   Clear
10:55 PM 39.0 °F 36.8 °F 37.2 °F 93% 30.17 in 10.0 mi West 3.5 mph - N/A   Clear
11:15 PM 37.4 °F 34.9 °F 35.8 °F 94% 30.17 in 10.0 mi West 3.5 mph - N/A   Clear
11:34 PM 38.3 °F 35.9 °F 36.9 °F 95% 30.17 in 10.0 mi WSW 3.5 mph - N/A   Clear
11:54 PM 37.8 °F - 36.1 °F 94% 30.17 in 10.0 mi Calm Calm - N/A   Clear